Content
SEND FEEDBACK

Daily
Averages
Monthly
Summary
United States of America

NAPERVILLE, ILLINOIS


Home > North America > United States > Illinois
Elevation: 687 feet     Latitude: 41 49N     Longitude: 088 04W

WEATHER
 
SELECT A DAY
Number of Records: 196,660;   Date Range: 1/1/95 - 8/28/14
 
SHARE

PRINT THIS DATA

[ ← Previous Day ]
WEATHER ALMANAC - APRIL 10, 2013
[ Next Day → ]
[ °C ]   °F
Weather ElementAverageHighLow
Temperature39 °F41 °F (1:51 am)37.4 °F (5:25 am)
Dewpoint37.8 °F39.2 °F (9:51 pm)35.6 °F (8:07 am)
Humidity95.6 %100 % (5:25 am)89 % (1:51 pm)
Barometer29.91 in29.99 in (1:40 pm)29.84 in (8:51 pm)
Wind Speed16 mph25.3 mph (12:51 pm)
Wind Gust44.9 mph (7:41 am)
Weather ElementAverage
Visibility6.8 mi
Wind DirectionNNE (39.2 °)

Weather ElementTotal
Precipitation1.12 in
Heating Degree Days25.8 (Base 65)
Averaged from 36 records on April 10, 2013
WEATHER CONDITIONS BREAKOUT
WIND DIRECTION BREAKOUT
WEATHER BY HOUR - APRIL 10, 2013
[ °C ]   °F
Local TimeTemperatureDewpointHumidityBarometerVisibilityWind DirectionWind SpeedGust SpeedPrecipitationEventsConditions
1:51 AM41.0 °F39.0 °F93 %29.90 in10.0 miNE (40°)11.5 mphOvercast
2:51 AM39.9 °F39.0 °F97 %29.91 in8.0 miNNE (30°)15.0 mph0.00 inRainLight Rain
3:51 AM39.0 °F37.9 °F96 %29.90 in9.0 miNNE (20°)17.3 mph27.6 mph0.01 inOvercast
4:51 AM37.9 °F37.0 °F97 %29.90 in8.0 miNNE (30°)15.0 mph21.9 mphOvercast
5:25 AM37.4 °F37.4 °F100 %29.88 in10.0 miNNE (30°)15.0 mph28.8 mphOvercast
5:51 AM37.9 °F37.0 °F97 %29.91 in7.0 miNE (40°)18.4 mph24.2 mph0.00 inLight Drizzle
6:47 AM37.4 °F37.4 °F100 %29.92 in4.0 miNNE (30°)17.3 mph24.2 mph0.02 inRainLight Rain
6:51 AM37.9 °F37.0 °F97 %29.93 in4.0 miNNE (20°)19.6 mph23.0 mph0.02 inRainLight Rain
7:41 AM37.4 °F37.4 °F100 %29.96 in3.0 miNNE (20°)18.4 mph44.9 mph0.00 inRain-ThunderstormLight Thunderstorms and Rain
7:44 AM37.4 °F37.4 °F100 %29.95 in2.0 miNNE (20°)23.0 mph44.9 mph0.02 inRain-ThunderstormHeavy Thunderstorms and Rain
7:51 AM37.9 °F37.0 °F97 %29.96 in2.0 miNE (40°)20.7 mph28.8 mph0.20 inRain-ThunderstormHeavy Thunderstorms with Small Hail
7:54 AM37.4 °F37.4 °F100 %29.92 in3.0 miNE (40°)19.6 mph28.8 mph0.04 inRain-ThunderstormHeavy Thunderstorms and Rain
8:07 AM37.4 °F35.6 °F93 %29.86 in6.0 miENE (60°)20.7 mph32.2 mph0.06 inRainLight Rain
8:22 AM37.4 °F37.4 °F100 %29.90 in9.0 miENE (70°)15.0 mph25.3 mph0.06 inOvercast
8:26 AM37.4 °F37.4 °F100 %29.88 in9.0 miEast (90°)12.7 mph0.06 inRain-ThunderstormLight Thunderstorms and Rain
8:51 AM39.0 °F37.0 °F93 %29.88 in10.0 miENE (70°)11.5 mph0.06 inOvercast
9:51 AM41.0 °F39.0 °F93 %29.88 in10.0 miENE (70°)9.2 mphOvercast
10:51 AM41.0 °F39.0 °F93 %29.95 in10.0 miNNE (30°)13.8 mph0.00 inRainLight Rain
11:51 AM39.9 °F37.9 °F93 %29.94 in10.0 miNorth (10°)12.7 mph20.7 mph0.00 inOvercast
12:01 PM39.2 °F37.4 °F93 %29.93 in10.0 miNNE (20°)16.1 mphOvercast
12:13 PM39.2 °F37.4 °F93 %29.91 in2.5 miNE (40°)15.0 mph23.0 mphOvercast
12:51 PM39.0 °F37.9 °F96 %29.89 in2.5 miNNE (30°)25.3 mph34.5 mph0.00 inOvercast
1:31 PM39.2 °F37.4 °F93 %29.97 in2.5 miNE (50°)8.1 mph19.6 mphOvercast
1:40 PM39.2 °F37.4 °F93 %29.99 in8.0 miNNE (20°)6.9 mphOvercast
1:51 PM39.9 °F37.0 °F89 %29.99 in8.0 miNorth (10°)13.8 mph20.7 mphOvercast
2:51 PM39.9 °F37.9 °F93 %29.89 in8.0 miNNE (20°)17.3 mph26.5 mph0.02 inRainLight Rain
3:51 PM39.9 °F37.9 °F93 %29.94 in8.0 miNE (50°)17.3 mph24.2 mph0.00 inOvercast
4:51 PM39.9 °F37.9 °F93 %29.95 in8.0 miNE (40°)16.1 mphOvercast
5:51 PM39.9 °F37.9 °F93 %29.89 in8.0 miNNE (30°)17.3 mph0.00 inOvercast
6:51 PM39.9 °F39.0 °F97 %29.87 in8.0 miNE (40°)17.3 mph21.9 mphOvercast
7:51 PM39.9 °F39.0 °F97 %29.88 in8.0 miENE (60°)16.1 mph21.9 mphOvercast
8:51 PM39.9 °F39.0 °F97 %29.84 in8.0 miNE (50°)17.3 mphOvercast
9:51 PM39.2 °F39.2 °F100 %29.89 in5.0 miNE (40°)11.5 mphRainHeavy Rain
10:51 PM39.9 °F37.9 °F93 %29.86 in6.0 miNE (50°)17.3 mph31.1 mph0.15 inRainRain
11:43 PM39.2 °F37.4 °F93 %29.86 in5.0 miNE (50°)17.3 mph23.0 mph0.17 inRain-ThunderstormThunderstorms and Rain
11:51 PM39.0 °F37.9 °F96 %29.88 in5.0 miNE (50°)19.6 mph24.2 mph0.23 inRain-ThunderstormThunderstorms and Rain
Hourly data recorded from KORD, located miles away from Naperville, Illinois







STORIES FROM OUR PARTNERS